User: anonymous   Login
Location: Unspecified
(0.0000°N, 0.0000°E)
Time: 13:47:10
(UTC+00:00)
Language:

APRIZESAT 3 - Orbit

View from above orbital plane
View from above orbital plane
View from above satellite
View from above satellite

Ground track
Ground track

The orbit data is extracted from the following two-line orbital elements,

1 35686U 09041F   16274.48427367  .00000315  00000-0  40370-4 0  9990
2 35686  98.2572 257.4017 0074355 136.6826 224.0267 14.86937817388595
Epoch (UTC): 30 September 2016 11:37:21
Eccentricity: 0.0074355
inclination: 98.2572°
perigee height: 555 km
apogee height: 659 km
right ascension of ascending node: 257.4017°
argument of perigee: 136.6826°
revolutions per day: 14.86937817
mean anomaly at epoch: 224.0267°
orbit number at epoch: 38859

The dashed part of the orbit path shows where the satellite is in the earth's shadow,  

DLR